Weather History for KMCK - January, 2013

Change the Weather History Date:

Saturday, January 12, 2013

  Actual Average Record
Temperature  
Mean Temperature 14 °F 27 °F  
Max Temperature 20 °F 40 °F 66 °F (1953)
Min Temperature 7 °F 14 °F -30 °F (1912)
Degree Days  
Heating Degree Days 52    
Moisture  
Dew Point 4 °F    
Average Humidity 65    
Maximum Humidity 77    
Minimum Humidity 55    
Precipitation  
Precipitation 0.00 in 0.02 in 0.10 in (1984)
Month to date precipitation T 0.21  
Year to date precipitation T 0.21  
Sea Level Pressure  
Sea Level Pressure 30.17 in    
Wind  
Wind Speed 13 mph (NW)    
Max Wind Speed 22 mph    
Max Gust Speed 25 mph    
Visibility 10 miles    
Events      
T = Trace of Precipitation, MM = Missing Value Source: NWS Daily Summary

Daily Weather History Graph

Daily Weather History Graph

Search for Another Location

Airport or City:

Trip Planner

Search our weather history database for the weather conditions in past years. The results will help you decide how hot, cold, wet, or windy it might be!

Date:

Astronomy

Jan. 12, 2013 Rise Set
Actual Time 8:03 AM CST 5:38 PM CST
Civil Twilight 7:33 AM CST 6:08 PM CST
Nautical Twilight 7:00 AM CST 6:41 PM CST
Astronomical Twilight 6:27 AM CST 7:14 PM CST
Moon 8:23 AM CST (1/12) 7:09 PM CST (1/12)
Length of Visible Light 10h 34m
Length of Day
9h 34m
New Moon, 1% of the Moon is Illuminated
Jan 12
New Moon
Jan 18
First Quarter
Jan 26
Full
Feb 3
Last Quarter
Feb 10
New

Hourly Weather History & Observations

Time (CST) Temp. Windchill Dew Point Humidity Pressure Visibility Wind Dir Wind Speed Gust Speed Precip Events Conditions
12:53 AM 17.1 °F 3.0 °F 8.1 °F 68% 30.00 in 10.0 mi WNW 13.8 mph - N/A   Clear
1:53 AM 16.0 °F 3.6 °F 7.0 °F 68% 30.02 in 10.0 mi WNW 10.4 mph - N/A   Clear
2:53 AM 15.1 °F 2.5 °F 6.1 °F 68% 30.04 in 10.0 mi WNW 10.4 mph - N/A   Clear
3:53 AM 14.0 °F -1.4 °F 5.0 °F 67% 30.05 in 10.0 mi WNW 15.0 mph - N/A   Clear
4:53 AM 12.9 °F -3.4 °F 3.9 °F 67% 30.06 in 10.0 mi NW 16.1 mph - N/A   Clear
5:53 AM 12.9 °F -0.2 °F 3.0 °F 65% 30.08 in 10.0 mi WNW 10.4 mph - N/A   Clear
6:53 AM 12.0 °F -1.3 °F 1.9 °F 64% 30.12 in 10.0 mi WNW 10.4 mph - N/A   Clear
7:53 AM 10.9 °F -2.6 °F 1.0 °F 64% 30.15 in 10.0 mi WNW 10.4 mph - N/A   Clear
8:53 AM 12.0 °F -1.3 °F 1.9 °F 64% 30.19 in 10.0 mi WNW 10.4 mph - N/A   Clear
9:53 AM 14.0 °F -0.8 °F 3.0 °F 62% 30.22 in 10.0 mi NW 13.8 mph - N/A   Clear
10:53 AM 16.0 °F -1.7 °F 3.9 °F 59% 30.23 in 10.0 mi NNW 21.9 mph 25.3 mph N/A   Clear
11:53 AM 15.8 °F -1.5 °F 3.2 °F 58% 30.08 in 10.0 mi NW 20.7 mph - N/A   Clear
12:53 PM 17.1 °F 0.6 °F 5.0 °F 59% 30.19 in 10.0 mi NNW 19.6 mph 24.2 mph N/A   Clear
1:53 PM 19.0 °F 5.6 °F 6.1 °F 57% 30.17 in 10.0 mi NNW 13.8 mph - N/A   Clear
2:53 PM 19.9 °F 5.2 °F 6.1 °F 55% 30.17 in 10.0 mi NNW 17.3 mph - N/A   Clear
3:53 PM 19.9 °F 6.2 °F 7.0 °F 57% 30.18 in 10.0 mi NNW 15.0 mph - N/A   Clear
4:53 PM 19.0 °F 4.5 °F 7.0 °F 59% 30.18 in 10.0 mi NNW 16.1 mph - N/A   Clear
5:53 PM 15.1 °F 1.1 °F 5.0 °F 64% 30.22 in 10.0 mi NNW 12.7 mph - N/A   Clear
6:53 PM 12.0 °F -1.3 °F 3.9 °F 70% 30.25 in 10.0 mi NW 10.4 mph - N/A   Clear
7:53 PM 10.9 °F -4.1 °F 3.9 °F 73% 30.26 in 10.0 mi NNW 12.7 mph - N/A   Clear
8:53 PM 10.0 °F -3.7 °F 1.9 °F 70% 30.27 in 10.0 mi NW 10.4 mph - N/A   Clear
9:53 PM 8.1 °F -5.3 °F 1.0 °F 73% 30.28 in 10.0 mi NW 9.2 mph - N/A   Clear
10:53 PM 7.0 °F -6.6 °F -0.0 °F 73% 30.28 in 10.0 mi NW 9.2 mph - N/A   Clear
11:53 PM 7.0 °F -7.5 °F 1.0 °F 77% 30.30 in 10.0 mi WNW 10.4 mph - N/A   Clear